This is the latest recevied weather packets stored in our database for station/object ED1ZAI-14. If no packets are shown the sender has not sent any weather packets the latest 10 day(s).
| Time | Temp. | Humidity | Pressure | Rain* | Wind** | Luminosity | Snow |
|---|---|---|---|---|---|---|---|
| 1788392055 | 17.22° C | 40% | 818.4 hPa | - | - | - | - |
| 1788390255 | 17.78° C | 38% | 818.2 hPa | - | - | - | - |
| 1788388455 | 17.22° C | 39% | 818.2 hPa | - | - | - | - |
| 1788386654 | 17.22° C | 38% | 818.2 hPa | - | - | - | - |
| 1788384854 | 17.22° C | 38% | 818.1 hPa | - | - | - | - |
| 1788383054 | 17.22° C | 39% | 817.9 hPa | - | - | - | - |
| 1788381254 | 17.22° C | 37% | 817.8 hPa | - | - | - | - |
| 1788379454 | 18.33° C | 33% | 817.6 hPa | - | - | - | - |
| 1788377654 | 17.78° C | 39% | 817.3 hPa | - | - | - | - |
| 1788375854 | 17.78° C | 50% | 817.1 hPa | - | - | - | - |
| 1788374057 | 19.44° C | 39% | 817 hPa | - | - | - | - |
| 1788372256 | 21.11° C | 28% | 817 hPa | - | - | - | - |
| 1788370461 | 22.22° C | 25% | 816.7 hPa | - | - | - | - |
| 1788368664 | 22.78° C | 23% | 816.9 hPa | - | - | - | - |
| 1788366857 | 24.44° C | 20% | 816.8 hPa | - | - | - | - |
| 1788365057 | 25.56° C | 23% | 816.8 hPa | - | - | - | - |
| 1788363257 | 25.56° C | 22% | 816.9 hPa | - | - | - | - |
| 1788361457 | 26.67° C | 21% | 816.8 hPa | - | - | - | - |
| 1788359664 | 26.67° C | 21% | 816.9 hPa | - | - | - | - |
| 1788357856 | 26.67° C | 25% | 817 hPa | - | - | - | - |
| 1788356056 | 26.67° C | 24% | 817 hPa | - | - | - | - |
| 1788354256 | 27.78° C | 22% | 817 hPa | - | - | - | - |
| 1788352456 | 25° C | 29% | 817 hPa | - | - | - | - |
| 1788350656 | 26.67° C | 28% | 817.1 hPa | - | - | - | - |
| 1788348856 | 26.67° C | 29% | 817.1 hPa | - | - | - | - |
* Rain since midnight (hover to see other rain measurements)
** Current wind speed in m/s (hover to see current wind gust speed)